Погода в Таразе

Поиск расширенной информации на нашем сайте:

Полезная информация:

Новости сайта



02.01.2020
Опубликован Долгосрочный прогноз погоды по городам России и ближнего зарубежья на январь 2020 года.
Карты: Прогноз на январь и февраль 2020 года, Сравнение прогнозируемой аномалии приземной температуры воздуха на январь 2020 года по разным моделям.




Погода в Таразе - сегодня

Время (UTC), дата Ветер
(°,м/с) 
Видим.   Явления Облачность Т
(°С)
Тd
(°С)
f(%) Тe
(°С)
Pmin
(гПа)
dP
(гПа)
Po
(мм)
O2
(г/м3)
Тmin Tmax R s Состояние
почвы
18 24.01.20 250 (З) 10  10 км    6/6 1000 м 
[Sc diur, vesp]
+6.2 +3.3 82 +3  1016.9  705  277    +7       
21 24.01.20 270 (З) 11  10 км    10/10 600 м кучево-дожд. 
[Cb cap]
+4.9 +1.9 81 +1  1018.5  1.2  706  279           
00 25.01.20 290 (З) 10 км    10/10 600 м кучево-дожд. 
[Cb cap]
+4 +1.7 85 +3  1019.8  0.9  706  280           
03 25.01.20 250 (З) 20000 м  {ливн. осадки}  10/8 600 м кучево-дожд., верхняя 
[Cb cap|Ci fib]
+4.2 +3 92 +2  1019.9  0.2  707  280      0.0     
06 25.01.20 290 (З) 20000 м    10/10 600 м кучево-дожд. 
[Cb cap]
+5.5 +3.1 85 +3  1020.4  0.8  707  279  +3.4    0.0     
09 25.01.20 260 (З) 20000 м    10/10 600 м кучево-дожд. 
[Cb cap]
+6.4 +2.8 78 +4  1019.3  0.8  707  278           
12 25.01.20 350 (С) 20000 м    10/10 1000 м 
[Sc diur, vesp]
-0.4 -0.4 100 -3  1023.5  708  286           
15 25.01.20 340 (С) 2000 м  снег  10/10 600 м 
[Ns]
-2.1 -2.1 100 -3  1026  1.7  709  288    +6.6     
18 25.01.20 360 (С) 4000 м  слаб. снег  10/10 600 м 
[Ns]
-3.4 -3.4 100 -5  1026.4  0.3  710  290    +6.6     
21 25.01.20 тихо ()   4000 м  слаб. снег  10/10 600 м 
[Ns]
-4 -4 100 -4  1027.3  0.4  710  291           
00 26.01.20 360 (С) 4000 м  слаб. снег  10/10 600 м 
[Ns]
-4.3 -4.3 100 -4  1027.2  -0.1  710  291           
03 26.01.20 тихо ()   4000 м  слаб. снег  10/10 600 м 
[Ns]
-4.7 -4.7 100 -5  1028.6  1.1  711  292      равномерный
сухой снег
100% 
06 26.01.20 170 (Ю) 20000 м  {снег}  10/10 600 м 
[Ns]
-2.5 -2.5 100 -2  1027.3  -0.6  710  289  -4.7       
09 26.01.20 тихо ()   20000 м    10/8 1000 м средняя 
[Sc diur, vesp|Ac lent]
+0 -2.1 86 1025.1  -1.3  709  286           
12 26.01.20 230 (ЮЗ) 20000 м    4/0 средняя, верхняя 
[Ac lent|Ci fib]
-0.9 -1.3 97 -2  1024.6  -0.6  709  287           
15 26.01.20 тихо ()   10 км    4/0 средняя, верхняя 
[Ac lent|Ci fib]
-5.3 -5.3 100 -5  1025.3  -0.7  708  292    +1.2       
18 26.01.20 220 (ЮЗ) 10 км    8/0 средняя, верхняя 
[Ac lent|Ci sp]
-3.7 -3.9 99 -5  1023.4  -1.3  707  289    +1.2       
21 26.01.20 200 (Ю) 10 км    10/0 средняя 
[Ac lent]
-3.2 -4.2 93 -6  1021.9  -1.3  706  288           
00 27.01.20 230 (ЮЗ) 10 км    10/0 средняя 
[Ac lent]
-3.1 -4.1 93 -6  1021  -0.8  706  288           
03 27.01.20 250 (З) 20000 м    10/0 средняя 
[Ac lent]
-0.2 -2.2 86 -2  1020.2  0.2  706  285        равномерный
сухой снег
100% 
06 27.01.20 270 (З) 20000 м    10/0 средняя 
[Ac As]
+1.5 -1 83 -3  1019.7  706  283  -6         
09 27.01.20 270 (З) 20000 м    10/4 1000 м средняя 
[Sc diur, vesp|Ac lent]
+2.1 -0.7 82 1020  0.4  706  282           
12 27.01.20 350 (С) 20000 м    10/8 600 м кучево-дожд., средняя 
[Cb cap|Ac lent]
+0.8 -0.9 88 -2  1022.9  2.4  708  284           
15 27.01.20 350 (С) 4000 м  слаб. снег  10/10 600 м 
[Ns]
-1.1 -1.1 100 -4  1026.9  3.1  710  287    +2.4  0.2     
18 27.01.20 090 (В) 10 км  {снег}  10/10 600 м 
[Ns]
-2 -2 100 -3  1027.8  1.7  712  289    +2.4  0.2     
Время (UTC), дата Ветер
(°,м/с) 
Видим.   Явления Облачность Т
(°С)
Тd
(°С)
f(%) Тe
(°С)
Pmin
(гПа)
dP
(гПа)
Po
(мм)
O2
(г/м3)
Тmin Tmax R s Состояние
почвы

Для получения пояснительной информации подведите курсор к названию столбца.

ПОГОДА в Таразе - архив

Всё, что Вы хотите узнать о погоде в Таразе - удобно и подробно!

Выберите нужную дату (начиная с 1 января 2019* года) и нажмите кнопку "Найти".
Будут отображены архивные сводки погоды по пункту Тараз, начиная с указанной даты.


Отображать данные в формате CSV (для использования в таблицах Excel)


Внимание! Наш архив погоды предназначен исключительно для личного некоммерческого использования в познавательных целях. Если Вам необходимы официальные справки о состоянии погоды (для производственных, юридических, коммерческих и т.п. целей), обращайтесь в органы Росгидромета.

*Примечание: данная дата относится к архиву по метеостанциям СССР (Россия, СНГ, Балтия).
Архив по метеостанциям Зарубежной Европы и Азии (кроме Китая) хранится 10 дней, по другим регионам земного шара (Китай, Африка, Америка, Австралия, Океания) - 1 день.

Тараз - район местоположения метеостанции


Название, широта, долгота, высота метеостанции:
Тараз (город) 42.9°ш. 71.4°д. 651 м над ур. моря [Казахстан]

Дополнительная информация

В oтличие oт бoльшинства пoгoдных сайтoв мы публикуем пoдрoбную метеoинфoрмацию в детальнoм прoфессиoнальнoм фoрмате.

Характеристики температуры и влажнoсти вoздуха измеряются на высoте 2 м в тени вдали oт зданий и деревьев.
Скoрoсть ветра измеряется на высoте 10 м (на урoвне рoста челoвека скoрoсть ветра ниже в 1.5-2 раза). Если метеoстанция нахoдится в гoрoде или в лесу, тo скoрoсть ветра занижена на 2-4 м/с пo сравнению с oткрытым местoм. Скoрoсть ветра над акватoриями крупных рек и oзёр, а также на вершинах хoлмoв на 2-5 м/с выше, чем в oбычных услoвиях.
Атмoсфернoе давление в разных тoчках местнoсти мoжет значительнo oтличаться oт давления на метеoстанции, в зависимoсти oт услoвий рельефа (при пoдъёме на 10 м давление пoнижается примернo на 1 мм рт.ст.).